IU6BJT Weather Reports


time (UTC)temp
F
wind
direction
speed
knots
gust
knots
rain 1hr
in
rain 24hr
in
rain mn
in
humidity
%
barometer
mb
20260503212031 58 255 2.6 5.2 0.00 0.00 0.00 70 1016.8
20260503211029 58 272 1.7 3.5 0.00 0.00 0.00 71 1016.8
20260503210026 58 284 1.7 2.6 0.00 0.00 0.00 72 1016.7
20260503205023 58 273 0.9 2.6 0.00 0.00 0.00 70 1016.8
20260503204021 59 277 3.5 3.5 0.00 0.00 0.00 70 1016.7
20260503203037 59 267 2.6 5.2 0.00 0.00 0.00 70 1016.8
20260503202034 59 250 0.9 1.7 0.00 0.00 0.00 69 1016.7
20260503201031 60 230 0.9 1.7 0.00 0.00 0.00 68 1016.8
20260503200029 61 243 0.9 0.9 0.00 0.00 0.00 66 1016.8
20260503195026 62 253 0.9 0.9 0.00 0.00 0.00 66 1016.8
20260503194023 62 255 0.0 0.9 0.00 0.00 0.00 63 1016.7
20260503193020 63 256 0.0 0.9 0.00 0.00 0.00 64 1016.6
20260503192017 64 231 0.9 1.7 0.00 0.00 0.00 61 1016.6
20260503191034 64 181 0.0 0.9 0.00 0.00 0.00 60 1016.5
20260503190051 64 182 0.0 0.9 0.00 0.00 0.00 60 1016.5
20260503185030 65 182 0.0 0.0 0.00 0.00 0.00 58 1016.5
20260503184025 66 182 0.0 0.9 0.00 0.00 0.00 56 1016.3
20260503183022 67 153 0.0 0.9 0.00 0.00 0.00 54 1016.2
20260503182019 68 180 0.9 1.7 0.00 0.00 0.00 51 1016.2
20260503181017 68 224 0.9 1.7 0.00 0.00 0.00 51 1016.2
20260503180034 69 212 0.9 1.7 0.00 0.00 0.00 52 1016.1
20260503175051 69 148 0.0 0.9 0.00 0.00 0.00 53 1016.1
20260503174028 69 105 0.9 1.7 0.00 0.00 0.00 52 1016.1
20260503173025 70 114 0.0 1.7 0.00 0.00 0.00 51 1016.2
20260503172022 70 105 0.9 2.6 0.00 0.00 0.00 50 1016.2
20260503171019 70 130 1.7 3.5 0.00 0.00 0.00 50 1016.3
20260503131031 70 102 3.5 8.7 0.00 0.00 0.00 54 1018.0
20260503081043 71 247 3.5 7.0 0.00 0.00 0.00 40 1019.7
20260503072028 66 252 3.5 7.0 0.00 0.00 0.00 46 1019.7
20260503071026 65 244 3.5 7.0 0.00 0.00 0.00 48 1019.7
20260503055022 55 270 3.5 7.0 0.00 0.00 0.00 63 1019.7
20260503054020 55 260 3.5 7.8 0.00 0.00 0.00 62 1019.7
20260503053017 53 260 3.5 7.0 0.00 0.00 0.00 66 1019.7
20260503052034 52 271 3.5 6.1 0.00 0.00 0.00 69 1019.5
20260503051031 51 269 4.3 7.8 0.00 0.00 0.00 70 1019.6
20260503050028 51 276 4.3 7.0 0.00 0.00 0.00 71 1019.5
20260503045025 50 270 3.5 6.1 0.00 0.00 0.00 72 1019.5
20260503044022 50 260 3.5 8.7 0.00 0.00 0.00 73 1019.5
20260503043019 49 259 3.5 6.1 0.00 0.00 0.00 74 1019.5
20260503042016 49 264 1.7 3.5 0.00 0.00 0.00 75 1019.4
20260503041034 49 262 3.5 7.0 0.00 0.00 0.00 75 1019.5
20260503040031 49 261 2.6 5.2 0.00 0.00 0.00 75 1019.4
20260503035028 49 266 2.6 6.1 0.00 0.00 0.00 76 1019.5
20260503034025 49 267 3.5 6.1 0.00 0.00 0.00 75 1019.4
20260503033022 49 260 3.5 7.0 0.00 0.00 0.00 76 1019.4
20260503032039 49 272 5.2 7.8 0.00 0.00 0.00 76 1019.4
20260503031016 49 266 4.3 7.0 0.00 0.00 0.00 76 1019.5
20260503030033 48 265 4.3 7.0 0.00 0.00 0.00 77 1019.5
20260503025030 49 268 4.3 7.0 0.00 0.00 0.00 77 1019.5
20260503024027 49 263 4.3 7.8 0.00 0.00 0.00 76 1019.6
20260503023025 49 264 3.5 6.1 0.00 0.00 0.00 77 1019.7
20260503022022 48 266 3.5 6.1 0.00 0.00 0.00 78 1019.8
20260503021019 48 272 4.3 7.0 0.00 0.00 0.00 77 1019.8
20260503020016 48 265 4.3 7.0 0.00 0.00 0.00 78 1019.7
20260503015033 48 263 4.3 7.0 0.00 0.00 0.00 77 1019.8
20260503014030 48 267 4.3 7.0 0.00 0.00 0.00 78 1019.8
20260503013027 48 267 4.3 6.1 0.00 0.00 0.00 78 1019.8
20260503012025 49 263 4.3 7.0 0.00 0.00 0.00 77 1020.0
20260503011021 48 265 4.3 7.0 0.00 0.00 0.00 77 1020.0
20260503010019 49 263 3.5 6.1 0.00 0.00 0.00 76 1020.1
20260503005056 49 255 4.3 6.1 0.00 0.00 0.00 77 1020.2
20260503004033 49 262 3.5 6.1 0.00 0.00 0.00 77 1020.3
20260503003030 49 250 3.5 6.1 0.00 0.00 0.00 76 1020.4
20260503002027 49 260 3.5 6.1 0.00 0.00 0.00 75 1020.4
20260503001024 49 265 3.5 6.1 0.00 0.00 0.00 76 1020.6
20260503000021 50 263 3.5 5.2 0.00 0.00 0.00 74 1020.6
20260502235018 50 269 3.5 6.1 0.00 0.00 0.00 75 1020.7
20260502234035 50 264 3.5 6.1 0.00 0.00 0.00 75 1020.8
20260502233054 50 260 3.5 7.8 0.00 0.00 0.00 75 1020.8
20260502232050 50 262 3.5 5.2 0.00 0.00 0.00 74 1020.9
20260502231026 51 262 3.5 5.2 0.00 0.00 0.00 73 1021.0
20260502230024 51 258 2.6 6.1 0.00 0.00 0.00 73 1021.0
20260502225021 51 261 3.5 6.1 0.00 0.00 0.00 72 1021.2
20260502224018 51 259 2.6 5.2 0.00 0.00 0.00 71 1021.3
20260502223035 51 257 3.5 6.1 0.00 0.00 0.00 71 1021.3
20260502222032 51 260 2.6 6.1 0.00 0.00 0.00 71 1021.4
20260502221029 51 263 3.5 5.2 0.00 0.00 0.00 71 1021.3
20260502220026 52 265 2.6 3.5 0.00 0.00 0.00 71 1021.4
20260502215024 52 276 1.7 2.6 0.00 0.00 0.00 69 1021.4
20260502214021 52 259 1.7 3.5 0.00 0.00 0.00 69 1021.5
20260502213038 52 268 4.3 6.1 0.00 0.00 0.00 68 1021.5